Weather History for El Centro, CA

Change the Weather History Date:

Friday, February 8, 2013

  Actual Average Record
Temperature  
Mean Temperature 55 °F -  
Max Temperature 64 °F 68 °F 82 °F (2006)
Min Temperature 46 °F 44 °F 37 °F (1997)
Degree Days  
Heating Degree Days 10    
Growing Degree Days 5 (Base 50)    
Moisture  
Dew Point 34 °F    
Average Humidity 44    
Maximum Humidity 63    
Minimum Humidity 29    
Precipitation  
Precipitation 0.00 in - - ()
Sea Level Pressure  
Sea Level Pressure 29.94 in    
Wind  
Wind Speed 24 mph (WSW)    
Max Wind Speed 44 mph    
Max Gust Speed 55 mph    
Visibility 10 miles    
Events      
Averages and records for this station are not official NWS values.
T = Trace of Precipitation, MM = Missing Value Source: NWS Daily Summary

Daily Weather History Graph

Daily Weather History Graph

Search for Another Location

Airport:

Trip Planner

Search our weather history database for the weather conditions in past years. The results will help you decide how hot, cold, wet, or windy it might be!

Date:

Astronomy

Feb. 08, 2013 Rise Set
Actual Time 6:31 AM PST 5:22 PM PST
Civil Twilight 6:06 AM PST 5:47 PM PST
Nautical Twilight 5:37 AM PST 6:16 PM PST
Astronomical Twilight 5:08 AM PST 6:45 PM PST
Moon 5:01 AM PST (2/8) 4:01 PM PST (2/8)
Length of Visible Light 11h 41m
Length of Day
10h 50m
Waning Crescent, 3% of the Moon is Illuminated
Feb 8
Waning Crescent
Feb 9
New
Feb 17
First Quarter
Feb 25
Full
Mar 4
Last Quarter

Hourly Weather History & Observations

Time (PST) Temp. Windchill Dew Point Humidity Pressure Visibility Wind Dir Wind Speed Gust Speed Precip Events Conditions
12:08 AM 57.2 °F - 37.4 °F 48% 29.87 in 10.0 mi WSW 27.6 mph 35.7 mph N/A   Mostly Cloudy
12:30 AM 57.2 °F - 37.4 °F 48% 29.86 in 10.0 mi West 32.2 mph 44.9 mph N/A   Mostly Cloudy
12:56 AM 57.0 °F - 37.0 °F 47% 29.91 in 10.0 mi West 34.5 mph 44.9 mph N/A   Overcast
1:56 AM 57.0 °F - 35.1 °F 44% 29.93 in 10.0 mi WSW 43.7 mph 51.8 mph N/A   Overcast
2:31 AM 57.2 °F - 35.6 °F 44% 29.86 in 10.0 mi WSW 39.1 mph 55.2 mph N/A   Scattered Clouds
2:56 AM 55.9 °F - 36.0 °F 47% 29.93 in 10.0 mi West 36.8 mph 49.5 mph N/A   Clear
3:56 AM 55.9 °F - 34.0 °F 44% 29.96 in 10.0 mi SW 20.7 mph 29.9 mph N/A   Clear
4:56 AM 55.9 °F - 34.0 °F 44% 29.96 in 10.0 mi SSE 15.0 mph 19.6 mph N/A   Scattered Clouds
5:56 AM 54.0 °F - 34.0 °F 47% 29.96 in 10.0 mi South 12.7 mph - N/A   Clear
6:56 AM 55.9 °F - 33.1 °F 42% 29.97 in 10.0 mi Variable 3.5 mph - N/A   Partly Cloudy
7:56 AM 57.0 °F - 33.1 °F 40% 29.99 in 10.0 mi North 6.9 mph - N/A   Partly Cloudy
8:56 AM 59.0 °F - 30.0 °F 33% 30.00 in 10.0 mi West 17.3 mph 25.3 mph N/A   Partly Cloudy
9:34 AM 60.8 °F - 33.8 °F 36% 29.96 in 10.0 mi West 26.5 mph 35.7 mph N/A   Squalls
9:56 AM 57.9 °F - 32.0 °F 37% 30.01 in 10.0 mi WSW 17.3 mph - N/A   Partly Cloudy
10:56 AM 63.0 °F - 30.0 °F 29% 29.98 in 10.0 mi West 19.6 mph 28.8 mph N/A   Partly Cloudy
11:56 AM 64.0 °F - 30.9 °F 29% 29.96 in 10.0 mi WSW 17.3 mph 24.2 mph N/A   Partly Cloudy
12:56 PM 64.0 °F - 30.9 °F 29% 29.94 in 10.0 mi WSW 23.0 mph 28.8 mph N/A   Partly Cloudy
1:56 PM 63.0 °F - 32.0 °F 31% 29.92 in 10.0 mi WSW 28.8 mph 38.0 mph N/A   Mostly Cloudy
2:56 PM 60.1 °F - 34.0 °F 38% 29.93 in 10.0 mi West 33.4 mph 38.0 mph N/A   Scattered Clouds
3:56 PM 55.9 °F - 37.0 °F 49% 29.94 in 10.0 mi West 21.9 mph 31.1 mph N/A   Scattered Clouds
4:56 PM 55.0 °F - 35.1 °F 47% 29.92 in 10.0 mi SW 18.4 mph - N/A   Scattered Clouds
5:56 PM 54.0 °F - 34.0 °F 47% 29.92 in 10.0 mi WSW 26.5 mph 31.1 mph N/A   Scattered Clouds
6:09 PM - - - N/A% - - North - - N/A   Unknown
6:56 PM 52.0 °F - 34.0 °F 50% 29.93 in 10.0 mi WSW 15.0 mph - N/A   Partly Cloudy
7:56 PM 51.1 °F - 34.0 °F 52% 29.91 in 10.0 mi WSW 20.7 mph - N/A   Clear
8:56 PM 50.0 °F - 34.0 °F 54% 29.93 in 10.0 mi West 12.7 mph - N/A   Clear
9:56 PM 48.0 °F - 34.0 °F 58% 29.94 in 10.0 mi West 6.9 mph - N/A   Clear
10:55 PM - - - N/A% - - North - - N/A   Unknown
10:56 PM 46.0 °F 42.5 °F 34.0 °F 63% 29.93 in 10.0 mi SSW 6.9 mph - N/A   Clear
11:56 PM 46.9 °F - 33.1 °F 59% 29.92 in 10.0 mi SW 9.2 mph - N/A   Clear